contact:dominique.lefevre@mio.osupytheas.fr, maurice.libes@osupytheas.fr, didier.mallarino@osupytheas.fr
Project:EMSO http://www.emso-fr.org/EMSO-France
Depth: 2436.0 m
Title:EMSO Ligure Ouest : Data MII capteur MICROCAT
DateTime_Computer,Latitude,Longitude,Temperature,Conductivity,Pressure,DateTime_Instrument
DateTime_Computer,Latitude,Longitude,degC,S m-1,dbar,DateTime_Instrument
2021-04-30T00:00:53Z,42.805,6.029,13.2982,4.59986,2470.31,2021-4-30T02:02:03Z
2021-04-30T00:03:56Z,42.805,6.029,13.2978,4.59985,2470.32,2021-4-30T02:05:06Z
2021-04-30T00:06:59Z,42.805,6.029,13.2983,4.59986,2470.297,2021-4-30T02:08:09Z
2021-04-30T00:10:03Z,42.805,6.029,13.2981,4.59988,2470.343,2021-4-30T02:11:12Z
2021-04-30T00:13:06Z,42.805,6.029,13.2982,4.59986,2470.31,2021-4-30T02:14:16Z
2021-04-30T00:16:09Z,42.805,6.029,13.2981,4.59986,2470.297,2021-4-30T02:17:19Z
2021-04-30T00:19:12Z,42.805,6.029,13.2982,4.59987,2470.297,2021-4-30T02:20:22Z
2021-04-30T00:22:15Z,42.805,6.029,13.2982,4.59986,2470.32,2021-4-30T02:23:25Z
2021-04-30T00:25:18Z,42.805,6.029,13.2983,4.59985,2470.273,2021-4-30T02:26:28Z
2021-04-30T00:28:21Z,42.805,6.029,13.2981,4.59985,2470.25,2021-4-30T02:29:31Z
2021-04-30T00:31:24Z,42.805,6.029,13.2981,4.59985,2470.287,2021-4-30T02:32:34Z
2021-04-30T00:34:28Z,42.805,6.029,13.2982,4.59986,2470.273,2021-4-30T02:35:37Z
2021-04-30T00:37:31Z,42.805,6.029,13.2979,4.59987,2470.31,2021-4-30T02:38:40Z
2021-04-30T00:40:34Z,42.805,6.029,13.2981,4.59986,2470.287,2021-4-30T02:41:44Z
2021-04-30T00:43:37Z,42.805,6.029,13.2980,4.59986,2470.32,2021-4-30T02:44:47Z
2021-04-30T00:46:40Z,42.805,6.029,13.2979,4.59986,2470.287,2021-4-30T02:47:50Z
2021-04-30T00:49:43Z,42.805,6.029,13.2981,4.59985,2470.273,2021-4-30T02:50:53Z
2021-04-30T00:52:46Z,42.805,6.029,13.2979,4.59985,2470.287,2021-4-30T02:53:56Z
2021-04-30T00:55:50Z,42.805,6.029,13.2982,4.59986,2470.25,2021-4-30T02:56:59Z
2021-04-30T00:58:53Z,42.805,6.029,13.2976,4.59988,2470.227,2021-4-30T03:00:02Z
2021-04-30T01:01:56Z,42.805,6.029,13.2982,4.59986,2470.25,2021-4-30T03:03:06Z
2021-04-30T01:04:59Z,42.805,6.029,13.2979,4.59986,2470.273,2021-4-30T03:06:09Z
2021-04-30T01:08:02Z,42.805,6.029,13.2981,4.59985,2470.227,2021-4-30T03:09:12Z
2021-04-30T01:11:05Z,42.805,6.029,13.2979,4.59986,2470.227,2021-4-30T03:12:15Z
2021-04-30T01:14:08Z,42.805,6.029,13.2979,4.59985,2470.25,2021-4-30T03:15:18Z
2021-04-30T01:17:11Z,42.805,6.029,13.2980,4.59986,2470.227,2021-4-30T03:18:21Z
2021-04-30T01:20:14Z,42.805,6.029,13.2983,4.59986,2470.203,2021-4-30T03:21:24Z
2021-04-30T01:23:18Z,42.805,6.029,13.2979,4.59989,2470.227,2021-4-30T03:24:27Z
2021-04-30T01:26:21Z,42.805,6.029,13.2983,4.59986,2470.203,2021-4-30T03:27:30Z
2021-04-30T01:29:24Z,42.805,6.029,13.2982,4.59985,2470.227,2021-4-30T03:30:34Z
2021-04-30T01:32:27Z,42.805,6.029,13.2979,4.59985,2470.24,2021-4-30T03:33:37Z
2021-04-30T01:35:30Z,42.805,6.029,13.2979,4.59986,2470.217,2021-4-30T03:36:40Z
2021-04-30T01:38:33Z,42.805,6.029,13.2976,4.59983,2470.264,2021-4-30T03:39:43Z
2021-04-30T01:41:36Z,42.805,6.029,13.2979,4.59986,2470.25,2021-4-30T03:42:46Z
2021-04-30T01:44:39Z,42.805,6.029,13.2979,4.59983,2470.227,2021-4-30T03:45:49Z
2021-04-30T01:47:43Z,42.805,6.029,13.2982,4.59985,2470.203,2021-4-30T03:48:52Z
2021-04-30T01:50:46Z,42.805,6.029,13.2981,4.59986,2470.227,2021-4-30T03:51:55Z
2021-04-30T01:53:49Z,42.805,6.029,13.2982,4.59985,2470.24,2021-4-30T03:54:59Z
2021-04-30T01:56:52Z,42.805,6.029,13.2980,4.59986,2470.203,2021-4-30T03:58:02Z
2021-04-30T01:59:55Z,42.805,6.029,13.2982,4.59984,2470.25,2021-4-30T04:01:05Z
2021-04-30T02:02:58Z,42.805,6.029,13.2980,4.59985,2470.203,2021-4-30T04:04:08Z
2021-04-30T02:06:01Z,42.805,6.029,13.2980,4.59985,2470.24,2021-4-30T04:07:11Z
2021-04-30T02:09:04Z,42.805,6.029,13.2981,4.59984,2470.227,2021-4-30T04:10:14Z
2021-04-30T02:12:08Z,42.805,6.029,13.2979,4.59988,2470.227,2021-4-30T04:13:17Z
2021-04-30T02:15:11Z,42.805,6.029,13.2983,4.59986,2470.25,2021-4-30T04:16:20Z
2021-04-30T02:18:14Z,42.805,6.029,13.2982,4.59985,2470.203,2021-4-30T04:19:24Z
2021-04-30T02:21:17Z,42.805,6.029,13.2979,4.59985,2470.194,2021-4-30T04:22:27Z
2021-04-30T02:24:20Z,42.805,6.029,13.2982,4.59984,2470.227,2021-4-30T04:25:30Z
2021-04-30T02:27:23Z,42.805,6.029,13.2977,4.59985,2470.203,2021-4-30T04:28:33Z
2021-04-30T02:30:26Z,42.805,6.029,13.2980,4.59988,2470.203,2021-4-30T04:31:36Z
2021-04-30T02:33:29Z,42.805,6.029,13.2982,4.59986,2470.217,2021-4-30T04:34:39Z
2021-04-30T02:36:33Z,42.805,6.029,13.2981,4.59989,2470.203,2021-4-30T04:37:42Z
2021-04-30T02:39:36Z,42.805,6.029,13.2980,4.59986,2470.24,2021-4-30T04:40:45Z
2021-04-30T02:42:39Z,42.805,6.029,13.2980,4.59986,2470.217,2021-4-30T04:43:49Z
2021-04-30T02:45:42Z,42.805,6.029,13.2978,4.59986,2470.203,2021-4-30T04:46:52Z
2021-04-30T02:48:45Z,42.805,6.029,13.2982,4.59988,2470.203,2021-4-30T04:49:55Z
2021-04-30T02:51:48Z,42.805,6.029,13.2979,4.59986,2470.217,2021-4-30T04:52:58Z
2021-04-30T02:54:51Z,42.805,6.029,13.2982,4.59986,2470.203,2021-4-30T04:56:01Z
2021-04-30T02:57:54Z,42.805,6.029,13.2979,4.59985,2470.18,2021-4-30T04:59:04Z
2021-04-30T03:00:57Z,42.805,6.029,13.2979,4.59986,2470.203,2021-4-30T05:02:07Z
2021-04-30T03:04:01Z,42.805,6.029,13.2982,4.59986,2470.217,2021-4-30T05:05:10Z
2021-04-30T03:07:04Z,42.805,6.029,13.2983,4.59986,2470.171,2021-4-30T05:08:13Z
2021-04-30T03:10:07Z,42.805,6.029,13.2981,4.59986,2470.156,2021-4-30T05:11:17Z
2021-04-30T03:13:10Z,42.805,6.029,13.2982,4.59984,2470.171,2021-4-30T05:14:20Z
2021-04-30T03:16:13Z,42.805,6.029,13.2982,4.59985,2470.156,2021-4-30T05:17:23Z
2021-04-30T03:19:16Z,42.805,6.029,13.2980,4.59986,2470.171,2021-4-30T05:20:26Z
2021-04-30T03:22:19Z,42.805,6.029,13.2979,4.59987,2470.156,2021-4-30T05:23:29Z
2021-04-30T03:25:22Z,42.805,6.029,13.2978,4.59985,2470.18,2021-4-30T05:26:32Z
2021-04-30T03:28:26Z,42.805,6.029,13.2982,4.59984,2470.194,2021-4-30T05:29:35Z
2021-04-30T03:31:29Z,42.805,6.029,13.2979,4.59985,2470.194,2021-4-30T05:32:39Z
2021-04-30T03:34:32Z,42.805,6.029,13.2980,4.59985,2470.18,2021-4-30T05:35:42Z
2021-04-30T03:37:35Z,42.805,6.029,13.2982,4.59987,2470.18,2021-4-30T05:38:45Z
2021-04-30T03:40:38Z,42.805,6.029,13.2978,4.59986,2470.171,2021-4-30T05:41:48Z
2021-04-30T03:43:41Z,42.805,6.029,13.2980,4.59986,2470.171,2021-4-30T05:44:51Z
2021-04-30T03:46:44Z,42.805,6.029,13.2981,4.59985,2470.18,2021-4-30T05:47:54Z
2021-04-30T03:49:47Z,42.805,6.029,13.2976,4.59984,2470.156,2021-4-30T05:50:57Z
2021-04-30T03:52:51Z,42.805,6.029,13.2981,4.59984,2470.18,2021-4-30T05:54:00Z
2021-04-30T03:55:54Z,42.805,6.029,13.2982,4.59986,2470.18,2021-4-30T05:57:03Z
2021-04-30T03:58:57Z,42.805,6.029,13.2987,4.59987,2470.156,2021-4-30T06:00:07Z
2021-04-30T04:02:00Z,42.805,6.029,13.2981,4.59986,2470.18,2021-4-30T06:03:10Z
2021-04-30T04:05:03Z,42.805,6.029,13.2976,4.59986,2470.147,2021-4-30T06:06:13Z
2021-04-30T04:08:06Z,42.805,6.029,13.2982,4.59986,2470.18,2021-4-30T06:09:16Z
2021-04-30T04:11:09Z,42.805,6.029,13.2983,4.59984,2470.194,2021-4-30T06:12:19Z
2021-04-30T04:14:12Z,42.805,6.029,13.2981,4.59986,2470.194,2021-4-30T06:15:22Z
2021-04-30T04:17:16Z,42.805,6.029,13.2980,4.59986,2470.194,2021-4-30T06:18:25Z
2021-04-30T04:20:19Z,42.805,6.029,13.2981,4.59986,2470.18,2021-4-30T06:21:28Z
2021-04-30T04:23:22Z,42.805,6.029,13.2981,4.59986,2470.143,2021-4-30T06:24:32Z
2021-04-30T04:26:25Z,42.805,6.029,13.2977,4.59986,2470.194,2021-4-30T06:27:35Z
2021-04-30T04:29:28Z,42.805,6.029,13.2979,4.59986,2470.18,2021-4-30T06:30:38Z
2021-04-30T04:32:31Z,42.805,6.029,13.2982,4.59986,2470.18,2021-4-30T06:33:41Z
2021-04-30T04:35:34Z,42.805,6.029,13.2981,4.59986,2470.217,2021-4-30T06:36:44Z
2021-04-30T04:38:37Z,42.805,6.029,13.2982,4.59986,2470.156,2021-4-30T06:39:47Z
2021-04-30T04:41:41Z,42.805,6.029,13.2979,4.59985,2470.194,2021-4-30T06:42:50Z
2021-04-30T04:44:44Z,42.805,6.029,13.2979,4.59986,2470.156,2021-4-30T06:45:53Z
2021-04-30T04:47:47Z,42.805,6.029,13.2982,4.59986,2470.18,2021-4-30T06:48:57Z
2021-04-30T04:50:50Z,42.805,6.029,13.2979,4.59986,2470.194,2021-4-30T06:52:00Z
2021-04-30T04:53:53Z,42.805,6.029,13.2983,4.59985,2470.18,2021-4-30T06:55:03Z
2021-04-30T04:56:56Z,42.805,6.029,13.2979,4.59986,2470.203,2021-4-30T06:58:06Z
2021-04-30T04:59:59Z,42.805,6.029,13.2978,4.59985,2470.18,2021-4-30T07:01:09Z
2021-04-30T05:03:02Z,42.805,6.029,13.2980,4.59986,2470.194,2021-4-30T07:04:12Z
2021-04-30T05:06:05Z,42.805,6.029,13.2979,4.59986,2470.194,2021-4-30T07:07:15Z
2021-04-30T05:09:09Z,42.805,6.029,13.2981,4.59986,2470.217,2021-4-30T07:10:18Z
2021-04-30T05:12:12Z,42.805,6.029,13.2981,4.59986,2470.203,2021-4-30T07:13:22Z
2021-04-30T05:15:15Z,42.805,6.029,13.2982,4.59986,2470.203,2021-4-30T07:16:25Z
2021-04-30T05:18:18Z,42.805,6.029,13.2979,4.59985,2470.217,2021-4-30T07:19:28Z
2021-04-30T05:21:21Z,42.805,6.029,13.2982,4.59986,2470.217,2021-4-30T07:22:31Z
2021-04-30T05:24:24Z,42.805,6.029,13.2979,4.59986,2470.203,2021-4-30T07:25:34Z
2021-04-30T05:27:27Z,42.805,6.029,13.2979,4.59986,2470.18,2021-4-30T07:28:37Z
2021-04-30T05:30:30Z,42.805,6.029,13.2983,4.59986,2470.203,2021-4-30T07:31:40Z
2021-04-30T05:33:34Z,42.805,6.029,13.2982,4.59986,2470.171,2021-4-30T07:34:43Z
2021-04-30T05:36:37Z,42.805,6.029,13.2979,4.59986,2470.24,2021-4-30T07:37:47Z
2021-04-30T05:39:40Z,42.805,6.029,13.2976,4.59986,2470.24,2021-4-30T07:40:50Z
2021-04-30T05:42:43Z,42.805,6.029,13.2979,4.59985,2470.227,2021-4-30T07:43:53Z
2021-04-30T05:45:46Z,42.805,6.029,13.2982,4.59985,2470.194,2021-4-30T07:46:56Z
2021-04-30T05:48:49Z,42.805,6.029,13.2980,4.59986,2470.18,2021-4-30T07:49:59Z
2021-04-30T05:51:52Z,42.805,6.029,13.2982,4.59984,2470.227,2021-4-30T07:53:02Z
2021-04-30T05:54:55Z,42.805,6.029,13.2982,4.59985,2470.227,2021-4-30T07:56:05Z
2021-04-30T05:57:59Z,42.805,6.029,13.2977,4.59986,2470.203,2021-4-30T07:59:08Z
2021-04-30T06:01:02Z,42.805,6.029,13.2979,4.59986,2470.24,2021-4-30T08:02:12Z
2021-04-30T06:04:05Z,42.805,6.029,13.2976,4.59985,2470.227,2021-4-30T08:05:15Z
2021-04-30T06:07:08Z,42.805,6.029,13.2982,4.59986,2470.203,2021-4-30T08:08:18Z
2021-04-30T06:10:11Z,42.805,6.029,13.2977,4.59986,2470.156,2021-4-30T08:11:21Z
2021-04-30T06:13:14Z,42.805,6.029,13.2981,4.59986,2470.227,2021-4-30T08:14:24Z
2021-04-30T06:16:17Z,42.805,6.029,13.2979,4.59986,2470.203,2021-4-30T08:17:27Z
2021-04-30T06:19:20Z,42.805,6.029,13.2976,4.59986,2470.203,2021-4-30T08:20:30Z
2021-04-30T06:22:24Z,42.805,6.029,13.2979,4.59986,2470.227,2021-4-30T08:23:33Z
2021-04-30T06:25:27Z,42.805,6.029,13.2979,4.59986,2470.217,2021-4-30T08:26:36Z
2021-04-30T06:28:30Z,42.805,6.029,13.2983,4.59986,2470.227,2021-4-30T08:29:40Z
2021-04-30T06:31:33Z,42.805,6.029,13.2978,4.59986,2470.217,2021-4-30T08:32:43Z
2021-04-30T06:34:36Z,42.805,6.029,13.2980,4.59986,2470.24,2021-4-30T08:35:46Z
2021-04-30T06:37:39Z,42.805,6.029,13.2983,4.59986,2470.25,2021-4-30T08:38:49Z
2021-04-30T06:40:42Z,42.805,6.029,13.2981,4.59986,2470.217,2021-4-30T08:41:52Z
2021-04-30T06:43:45Z,42.805,6.029,13.2978,4.59986,2470.203,2021-4-30T08:44:55Z
2021-04-30T06:46:49Z,42.805,6.029,13.2982,4.59986,2470.24,2021-4-30T08:47:58Z
2021-04-30T06:49:52Z,42.805,6.029,13.2981,4.59986,2470.24,2021-4-30T08:51:01Z
2021-04-30T06:52:55Z,42.805,6.029,13.2979,4.59986,2470.227,2021-4-30T08:54:05Z
2021-04-30T06:55:58Z,42.805,6.029,13.2982,4.59987,2470.25,2021-4-30T08:57:08Z
2021-04-30T06:59:01Z,42.805,6.029,13.2980,4.59987,2470.25,2021-4-30T09:00:11Z
2021-04-30T07:02:04Z,42.805,6.029,13.2981,4.59986,2470.24,2021-4-30T09:03:14Z
2021-04-30T07:05:07Z,42.805,6.029,13.2981,4.59988,2470.273,2021-4-30T09:06:17Z
2021-04-30T07:08:10Z,42.805,6.029,13.2980,4.59986,2470.25,2021-4-30T09:09:20Z
2021-04-30T07:11:13Z,42.805,6.029,13.2977,4.59987,2470.297,2021-4-30T09:12:23Z
2021-04-30T07:14:17Z,42.805,6.029,13.2979,4.59986,2470.273,2021-4-30T09:15:26Z
2021-04-30T07:17:20Z,42.805,6.029,13.2984,4.59986,2470.264,2021-4-30T09:18:30Z
2021-04-30T07:20:23Z,42.805,6.029,13.2983,4.59986,2470.264,2021-4-30T09:21:33Z
2021-04-30T07:23:26Z,42.805,6.029,13.2979,4.59986,2470.32,2021-4-30T09:24:36Z
2021-04-30T07:26:29Z,42.805,6.029,13.2974,4.59987,2470.273,2021-4-30T09:27:39Z
2021-04-30T07:29:32Z,42.805,6.029,13.2983,4.59986,2470.287,2021-4-30T09:30:42Z
2021-04-30T07:32:35Z,42.805,6.029,13.2982,4.59987,2470.25,2021-4-30T09:33:45Z
2021-04-30T07:35:38Z,42.805,6.029,13.2980,4.59986,2470.273,2021-4-30T09:36:48Z
2021-04-30T07:38:42Z,42.805,6.029,13.2980,4.59986,2470.297,2021-4-30T09:39:51Z
2021-04-30T07:41:45Z,42.805,6.029,13.2982,4.59986,2470.273,2021-4-30T09:42:55Z
2021-04-30T07:44:48Z,42.805,6.029,13.2982,4.59986,2470.273,2021-4-30T09:45:58Z
2021-04-30T07:47:51Z,42.805,6.029,13.2980,4.59986,2470.297,2021-4-30T09:49:01Z
2021-04-30T07:50:54Z,42.805,6.029,13.2983,4.59986,2470.273,2021-4-30T09:52:04Z
2021-04-30T07:53:57Z,42.805,6.029,13.2982,4.59986,2470.273,2021-4-30T09:55:07Z
2021-04-30T07:57:00Z,42.805,6.029,13.2979,4.59986,2470.32,2021-4-30T09:58:10Z
2021-04-30T08:00:03Z,42.805,6.029,13.2979,4.59986,2470.297,2021-4-30T10:01:13Z
2021-04-30T08:03:07Z,42.805,6.029,13.2982,4.59986,2470.297,2021-4-30T10:04:16Z
2021-04-30T08:06:10Z,42.805,6.029,13.2981,4.59986,2470.297,2021-4-30T10:07:20Z
2021-04-30T08:09:13Z,42.805,6.029,13.2983,4.59986,2470.32,2021-4-30T10:10:23Z
2021-04-30T08:12:16Z,42.805,6.029,13.2982,4.59986,2470.287,2021-4-30T10:13:26Z
2021-04-30T08:15:19Z,42.805,6.029,13.2979,4.59988,2470.334,2021-4-30T10:16:29Z
2021-04-30T08:18:22Z,42.805,6.029,13.2983,4.59986,2470.32,2021-4-30T10:19:32Z
2021-04-30T08:21:25Z,42.805,6.029,13.2979,4.59986,2470.297,2021-4-30T10:22:35Z
2021-04-30T08:24:29Z,42.805,6.029,13.2982,4.59986,2470.32,2021-4-30T10:25:38Z
2021-04-30T08:27:32Z,42.805,6.029,13.2980,4.59988,2470.31,2021-4-30T10:28:41Z
2021-04-30T08:30:35Z,42.805,6.029,13.2983,4.59986,2470.31,2021-4-30T10:31:45Z
2021-04-30T08:33:38Z,42.805,6.029,13.2979,4.59988,2470.32,2021-4-30T10:34:48Z
2021-04-30T08:36:41Z,42.805,6.029,13.2979,4.59987,2470.343,2021-4-30T10:37:51Z
2021-04-30T08:39:44Z,42.805,6.029,13.2979,4.59988,2470.297,2021-4-30T10:40:54Z
2021-04-30T08:42:47Z,42.805,6.029,13.2979,4.59987,2470.334,2021-4-30T10:43:57Z
2021-04-30T08:45:50Z,42.805,6.029,13.2980,4.59986,2470.343,2021-4-30T10:47:00Z
2021-04-30T08:48:54Z,42.805,6.029,13.2979,4.59986,2470.343,2021-4-30T10:50:03Z
2021-04-30T08:51:57Z,42.805,6.029,13.2982,4.59986,2470.297,2021-4-30T10:53:06Z
2021-04-30T08:55:00Z,42.805,6.029,13.2983,4.59986,2470.32,2021-4-30T10:56:10Z
2021-04-30T08:58:03Z,42.805,6.029,13.2982,4.59986,2470.334,2021-4-30T10:59:13Z
2021-04-30T09:01:06Z,42.805,6.029,13.2979,4.59986,2470.297,2021-4-30T11:02:16Z
2021-04-30T09:04:09Z,42.805,6.029,13.2980,4.59986,2470.297,2021-4-30T11:05:19Z
2021-04-30T09:07:12Z,42.805,6.029,13.2979,4.59986,2470.297,2021-4-30T11:08:22Z
2021-04-30T09:10:15Z,42.805,6.029,13.2979,4.59986,2470.31,2021-4-30T11:11:25Z
2021-04-30T09:13:19Z,42.805,6.029,13.2979,4.59986,2470.32,2021-4-30T11:14:28Z
2021-04-30T09:16:22Z,42.805,6.029,13.2982,4.59984,2470.334,2021-4-30T11:17:31Z
2021-04-30T09:19:25Z,42.805,6.029,13.2982,4.59986,2470.31,2021-4-30T11:20:35Z
2021-04-30T09:22:28Z,42.805,6.029,13.2981,4.59986,2470.31,2021-4-30T11:23:38Z
2021-04-30T09:25:31Z,42.805,6.029,13.2982,4.59986,2470.343,2021-4-30T11:26:41Z
2021-04-30T09:28:34Z,42.805,6.029,13.2982,4.59986,2470.31,2021-4-30T11:29:44Z
2021-04-30T09:31:37Z,42.805,6.029,13.2981,4.59986,2470.357,2021-4-30T11:32:47Z
2021-04-30T09:34:40Z,42.805,6.029,13.2984,4.59986,2470.264,2021-4-30T11:35:50Z
2021-04-30T09:37:44Z,42.805,6.029,13.2980,4.59987,2470.357,2021-4-30T11:38:53Z
2021-04-30T09:40:47Z,42.805,6.029,13.2980,4.59986,2470.297,2021-4-30T11:41:57Z
2021-04-30T09:43:50Z,42.805,6.029,13.2977,4.59986,2470.297,2021-4-30T11:45:00Z
2021-04-30T09:46:53Z,42.805,6.029,13.2985,4.59986,2470.31,2021-4-30T11:48:03Z
2021-04-30T09:49:56Z,42.805,6.029,13.2980,4.59987,2470.31,2021-4-30T11:51:06Z
2021-04-30T09:52:59Z,42.805,6.029,13.2983,4.59986,2470.273,2021-4-30T11:54:09Z
2021-04-30T09:56:02Z,42.805,6.029,13.2976,4.59986,2470.25,2021-4-30T11:57:12Z
2021-04-30T09:59:05Z,42.805,6.029,13.2981,4.59986,2470.273,2021-4-30T12:00:15Z
2021-04-30T10:02:09Z,42.805,6.029,13.2978,4.59988,2470.297,2021-4-30T12:03:18Z
2021-04-30T10:05:12Z,42.805,6.029,13.2980,4.59986,2470.31,2021-4-30T12:06:22Z
2021-04-30T10:08:15Z,42.805,6.029,13.2986,4.59986,2470.297,2021-4-30T12:09:25Z
2021-04-30T10:11:18Z,42.805,6.029,13.2980,4.59986,2470.297,2021-4-30T12:12:28Z
2021-04-30T10:14:21Z,42.805,6.029,13.2981,4.59985,2470.31,2021-4-30T12:15:31Z
2021-04-30T10:17:24Z,42.805,6.029,13.2977,4.59986,2470.273,2021-4-30T12:18:34Z
2021-04-30T10:20:27Z,42.805,6.029,13.2978,4.59986,2470.26,2021-4-30T12:21:37Z
2021-04-30T10:23:31Z,42.805,6.029,13.2982,4.59988,2470.31,2021-4-30T12:24:40Z
2021-04-30T10:26:34Z,42.805,6.029,13.2982,4.59985,2470.31,2021-4-30T12:27:43Z
2021-04-30T10:29:37Z,42.805,6.029,13.2976,4.59985,2470.25,2021-4-30T12:30:47Z
2021-04-30T10:32:40Z,42.805,6.029,13.2980,4.59985,2470.273,2021-4-30T12:33:50Z
2021-04-30T10:35:43Z,42.805,6.029,13.2979,4.59986,2470.25,2021-4-30T12:36:53Z
2021-04-30T10:38:46Z,42.805,6.029,13.2982,4.59986,2470.287,2021-4-30T12:39:56Z
2021-04-30T10:41:49Z,42.805,6.029,13.2979,4.59986,2470.264,2021-4-30T12:42:59Z
2021-04-30T10:44:52Z,42.805,6.029,13.2979,4.59987,2470.273,2021-4-30T12:46:02Z
2021-04-30T10:47:56Z,42.805,6.029,13.2982,4.59986,2470.273,2021-4-30T12:49:05Z
2021-04-30T10:50:59Z,42.805,6.029,13.2980,4.59986,2470.287,2021-4-30T12:52:08Z
2021-04-30T10:54:02Z,42.805,6.029,13.2981,4.59986,2470.273,2021-4-30T12:55:12Z
2021-04-30T10:57:05Z,42.805,6.029,13.2982,4.59986,2470.273,2021-4-30T12:58:15Z
2021-04-30T11:00:08Z,42.805,6.029,13.2981,4.59985,2470.287,2021-4-30T13:01:18Z
2021-04-30T11:03:11Z,42.805,6.029,13.2983,4.59985,2470.25,2021-4-30T13:04:21Z
2021-04-30T11:06:14Z,42.805,6.029,13.2982,4.59986,2470.25,2021-4-30T13:07:24Z
2021-04-30T11:09:17Z,42.805,6.029,13.2981,4.59985,2470.264,2021-4-30T13:10:27Z
2021-04-30T11:12:21Z,42.805,6.029,13.2982,4.59988,2470.25,2021-4-30T13:13:30Z
2021-04-30T11:15:24Z,42.805,6.029,13.2985,4.59985,2470.24,2021-4-30T13:16:33Z
2021-04-30T11:18:27Z,42.805,6.029,13.2983,4.59986,2470.227,2021-4-30T13:19:37Z
2021-04-30T11:21:30Z,42.805,6.029,13.2982,4.59986,2470.227,2021-4-30T13:22:40Z
2021-04-30T11:24:33Z,42.805,6.029,13.2981,4.59985,2470.18,2021-4-30T13:25:43Z
2021-04-30T11:27:36Z,42.805,6.029,13.2979,4.59985,2470.24,2021-4-30T13:28:46Z
2021-04-30T11:30:39Z,42.805,6.029,13.2979,4.59986,2470.227,2021-4-30T13:31:49Z
2021-04-30T11:33:42Z,42.805,6.029,13.2977,4.59986,2470.287,2021-4-30T13:34:52Z
2021-04-30T11:36:46Z,42.805,6.029,13.2981,4.59986,2470.25,2021-4-30T13:37:55Z
2021-04-30T11:39:49Z,42.805,6.029,13.2983,4.59985,2470.25,2021-4-30T13:40:59Z
2021-04-30T11:42:52Z,42.805,6.029,13.2981,4.59985,2470.217,2021-4-30T13:44:02Z
2021-04-30T11:45:55Z,42.805,6.029,13.2982,4.59986,2470.25,2021-4-30T13:47:05Z
2021-04-30T11:48:58Z,42.805,6.029,13.2981,4.59985,2470.264,2021-4-30T13:50:08Z
2021-04-30T11:52:01Z,42.805,6.029,13.2975,4.59985,2470.24,2021-4-30T13:53:11Z
2021-04-30T11:55:04Z,42.805,6.029,13.2980,4.59986,2470.217,2021-4-30T13:56:14Z
2021-04-30T11:58:07Z,42.805,6.029,13.2979,4.59985,2470.217,2021-4-30T13:59:17Z
2021-04-30T12:01:11Z,42.805,6.029,13.2979,4.59986,2470.217,2021-4-30T14:02:20Z
2021-04-30T12:04:14Z,42.805,6.029,13.2983,4.59986,2470.264,2021-4-30T14:05:24Z
2021-04-30T12:07:17Z,42.805,6.029,13.2983,4.59986,2470.273,2021-4-30T14:08:27Z
2021-04-30T12:10:20Z,42.805,6.029,13.2979,4.59987,2470.264,2021-4-30T14:11:30Z
2021-04-30T12:13:23Z,42.805,6.029,13.2982,4.59986,2470.203,2021-4-30T14:14:33Z
2021-04-30T12:16:26Z,42.805,6.029,13.2982,4.59985,2470.203,2021-4-30T14:17:36Z
2021-04-30T12:19:29Z,42.805,6.029,13.2981,4.59986,2470.217,2021-4-30T14:20:39Z
2021-04-30T12:22:32Z,42.805,6.029,13.2979,4.59986,2470.203,2021-4-30T14:23:42Z
2021-04-30T12:25:36Z,42.805,6.029,13.2979,4.59986,2470.203,2021-4-30T14:26:45Z
2021-04-30T12:28:39Z,42.805,6.029,13.2981,4.59986,2470.227,2021-4-30T14:29:49Z
2021-04-30T12:31:42Z,42.805,6.029,13.2981,4.59976,2470.217,2021-4-30T14:32:52Z
2021-04-30T12:34:45Z,42.805,6.029,13.2979,4.59989,2470.227,2021-4-30T14:35:55Z
2021-04-30T12:37:48Z,42.805,6.029,13.2979,4.59988,2470.18,2021-4-30T14:38:58Z
2021-04-30T12:40:51Z,42.805,6.029,13.2983,4.59987,2470.203,2021-4-30T14:42:01Z
2021-04-30T12:43:54Z,42.805,6.029,13.2981,4.59986,2470.227,2021-4-30T14:45:04Z
2021-04-30T12:46:57Z,42.805,6.029,13.2979,4.59987,2470.203,2021-4-30T14:48:07Z
2021-04-30T12:50:01Z,42.805,6.029,13.2978,4.59988,2470.203,2021-4-30T14:51:10Z
2021-04-30T12:53:04Z,42.805,6.029,13.2982,4.59986,2470.18,2021-4-30T14:54:14Z
2021-04-30T12:56:07Z,42.805,6.029,13.2982,4.59988,2470.194,2021-4-30T14:57:17Z
2021-04-30T12:59:10Z,42.805,6.029,13.2981,4.59989,2470.18,2021-4-30T15:00:20Z
2021-04-30T13:02:13Z,42.805,6.029,13.2982,4.59988,2470.18,2021-4-30T15:03:23Z
2021-04-30T13:05:16Z,42.805,6.029,13.2981,4.59988,2470.171,2021-4-30T15:06:26Z
2021-04-30T13:08:19Z,42.805,6.029,13.2983,4.59990,2470.171,2021-4-30T15:09:29Z
2021-04-30T13:11:23Z,42.805,6.029,13.2982,4.59987,2470.18,2021-4-30T15:12:32Z
2021-04-30T13:14:26Z,42.805,6.029,13.2980,4.59989,2470.18,2021-4-30T15:15:35Z
2021-04-30T13:17:29Z,42.805,6.029,13.2981,4.59988,2470.133,2021-4-30T15:18:39Z
2021-04-30T13:20:32Z,42.805,6.029,13.2976,4.59989,2470.156,2021-4-30T15:21:42Z
2021-04-30T13:23:35Z,42.805,6.029,13.2982,4.59986,2470.18,2021-4-30T15:24:45Z
2021-04-30T13:26:38Z,42.805,6.029,13.2980,4.59988,2470.156,2021-4-30T15:27:48Z
2021-04-30T13:29:41Z,42.805,6.029,13.2981,4.59988,2470.133,2021-4-30T15:30:51Z
2021-04-30T13:32:44Z,42.805,6.029,13.2981,4.59988,2470.156,2021-4-30T15:33:54Z
2021-04-30T13:35:48Z,42.805,6.029,13.2982,4.59988,2470.156,2021-4-30T15:36:57Z
2021-04-30T13:38:51Z,42.805,6.029,13.2979,4.59990,2470.194,2021-4-30T15:40:00Z
2021-04-30T13:41:54Z,42.805,6.029,13.2984,4.59988,2470.147,2021-4-30T15:43:04Z
2021-04-30T13:44:57Z,42.805,6.029,13.2982,4.59987,2470.171,2021-4-30T15:46:07Z
2021-04-30T13:48:00Z,42.805,6.029,13.2980,4.59988,2470.156,2021-4-30T15:49:10Z
2021-04-30T13:51:03Z,42.805,6.029,13.2979,4.59987,2470.11,2021-4-30T15:52:13Z
2021-04-30T13:54:06Z,42.805,6.029,13.2979,4.59987,2470.11,2021-4-30T15:55:16Z
2021-04-30T13:57:09Z,42.805,6.029,13.2982,4.59986,2470.171,2021-4-30T15:58:19Z
2021-04-30T14:00:13Z,42.805,6.029,13.2982,4.59988,2470.156,2021-4-30T16:01:22Z
2021-04-30T14:03:16Z,42.805,6.029,13.2983,4.59991,2470.11,2021-4-30T16:04:25Z
2021-04-30T14:06:19Z,42.805,6.029,13.2978,4.59987,2470.124,2021-4-30T16:07:29Z
2021-04-30T14:09:22Z,42.805,6.029,13.2982,4.59988,2470.147,2021-4-30T16:10:32Z
2021-04-30T14:12:25Z,42.805,6.029,13.2982,4.59988,2470.147,2021-4-30T16:13:35Z
2021-04-30T14:15:28Z,42.805,6.029,13.2978,4.59987,2470.124,2021-4-30T16:16:38Z
2021-04-30T14:18:31Z,42.805,6.029,13.2979,4.59989,2470.063,2021-4-30T16:19:41Z
2021-04-30T14:21:34Z,42.805,6.029,13.2982,4.59987,2470.087,2021-4-30T16:22:44Z
2021-04-30T14:24:38Z,42.805,6.029,13.2985,4.59989,2470.11,2021-4-30T16:25:47Z
2021-04-30T14:27:41Z,42.805,6.029,13.2981,4.59988,2470.087,2021-4-30T16:28:50Z
2021-04-30T14:30:44Z,42.805,6.029,13.2979,4.59987,2470.11,2021-4-30T16:31:54Z
2021-04-30T14:33:47Z,42.805,6.029,13.2980,4.59986,2470.11,2021-4-30T16:34:57Z
2021-04-30T14:36:50Z,42.805,6.029,13.2979,4.59989,2470.1,2021-4-30T16:38:00Z
2021-04-30T14:39:53Z,42.805,6.029,13.2979,4.59987,2470.087,2021-4-30T16:41:03Z
2021-04-30T14:42:56Z,42.805,6.029,13.2979,4.59988,2470.087,2021-4-30T16:44:06Z
2021-04-30T14:45:59Z,42.805,6.029,13.2977,4.59987,2470.133,2021-4-30T16:47:09Z
2021-04-30T14:49:03Z,42.805,6.029,13.2980,4.59987,2470.087,2021-4-30T16:50:12Z
2021-04-30T14:52:06Z,42.805,6.029,13.2979,4.59987,2470.11,2021-4-30T16:53:16Z
2021-04-30T14:55:09Z,42.805,6.029,13.2982,4.59988,2470.11,2021-4-30T16:56:19Z
2021-04-30T14:58:12Z,42.805,6.029,13.2977,4.59987,2470.087,2021-4-30T16:59:22Z
2021-04-30T15:01:15Z,42.805,6.029,13.2982,4.59987,2470.04,2021-4-30T17:02:25Z
2021-04-30T15:04:18Z,42.805,6.029,13.2977,4.59986,2470.1,2021-4-30T17:05:28Z
2021-04-30T15:07:21Z,42.805,6.029,13.2982,4.59986,2470.087,2021-4-30T17:08:31Z
2021-04-30T15:10:24Z,42.805,6.029,13.2979,4.59988,2470.077,2021-4-30T17:11:34Z
2021-04-30T15:13:28Z,42.805,6.029,13.2982,4.59987,2470.087,2021-4-30T17:14:37Z